Flag for Russia Weather past 2 weeks in Rostov, Russia

Now
43 °F

Light rain. Fog.


Feels Like: 43 °F
Forecast: 37 / 48 °F
Wind: 1 mph from North

Location: Rostov-Na-Donu

Current Time: Dec 18, 2014 at 7:04:03 PM

Latest Report: Dec 18, 2014 at 6:30 PM


Visibility: 1 mi

Pressure: 29.95 "Hg

Humidity: 93%

Dew point: 41 °F

Location of RostovLocation

Historic Weather in Rostov — Graph

°F

Rostov temperature yesterday

Maximum temperature yesterday: 36 °F (at 1:00 AM)
Minimum temperature yesterday: 32 °F (at 6:00 PM)
Average temperature yesterday: 34 °F

Past Weeks' High & Low Weather Summary

 TemperatureHumidityPressure
High50 °F (Dec 12, 12:30 PM)100% (Dec 4, 12:00 PM)30.63 "Hg (Dec 4, 12:00 PM)
Low5 °F (Dec 4, 2:30 AM)54% (Dec 5, 1:30 PM)29.95 "Hg (Dec 12, 9:30 PM)
Average29 °F96%30.27 "Hg
* Reported Dec 3 5:00 PM — Dec 18 5:30 PM, Rostov, Weather by CustomWeather, © 2014

Note: Actual official high and low records may vary slightly from our data, if they occured in-between our weather recording intervals... More about our weather records

Advertising

Rostov weather history for previous 24 hours

 ConditionsComfort  
Time TempWeatherWind HumidityBarometerVisibility
5:30 PM
Dec 18
41 °FLight rain. Fog.3 mph93%29.95 "Hg1 mi
5:00 PM41 °FFog.6 mph93%29.95 "Hg3 mi
4:30 PM41 °FLight rain. Mostly cloudy.3 mph93%29.95 "Hg4 mi
4:00 PM41 °FPartly sunny.1 mph87%29.95 "Hg4 mi
3:30 PM39 °FClear.6 mph93%29.95 "Hg4 mi
3:00 PM39 °FPartly sunny.3 mph93%29.95 "Hg4 mi
2:30 PM41 °FPartly sunny.3 mph93%29.95 "Hg4 mi
2:00 PM39 °FPartly sunny.3 mph93%29.95 "Hg4 mi
1:30 PM39 °FFog.3 mph93%29.95 "Hg3 mi
1:00 PM37 °FFog.3 mph100%29.95 "Hg3 mi
12:30 PM37 °FFog.3 mph93%29.98 "Hg2 mi
12:00 PM37 °FFog.3 mph93%29.98 "Hg3 mi
11:30 AM37 °FSprinkles. Fog.6 mph93%29.98 "Hg3 mi
11:00 AM36 °FSprinkles. Fog.3 mph93%30.01 "Hg3 mi
10:30 AM36 °FSprinkles. Fog.6 mph93%30.01 "Hg2 mi
10:00 AM36 °FSprinkles. Fog.3 mph93%30.01 "Hg2 mi
9:30 AM34 °FFog.6 mph93%30.01 "Hg2 mi
9:00 AM34 °FFog.6 mph93%30.01 "Hg2 mi
8:30 AM34 °FFog.6 mph93%30.01 "Hg3 mi
8:00 AM34 °FFog.6 mph93%30.01 "Hg2 mi
7:30 AM34 °FFog.6 mph93%30.01 "Hg2 mi
6:30 AM32 °FIce fog.8 mph100%30.01 "Hg2 mi
6:00 AM32 °FIce fog.8 mph100%30.01 "Hg2 mi
5:30 AM32 °FIce fog.6 mph100%30.01 "Hg2 mi
5:00 AM32 °FIce fog.8 mph100%30.01 "Hg2 mi
4:30 AM32 °FIce fog.8 mph93%30.01 "Hg2 mi
4:00 AM32 °FIce fog.8 mph93%30.04 "Hg2 mi
3:30 AM32 °FDrizzle. Ice fog.8 mph93%30.04 "Hg2 mi
3:00 AM32 °FDrizzle. Ice fog.13 mph100%30.04 "Hg2 mi
2:30 AM32 °FDrizzle. Ice fog.10 mph100%30.04 "Hg2 mi
2:00 AM32 °FIce fog.6 mph100%30.07 "Hg2 mi
1:30 AM32 °FIce fog.8 mph100%30.07 "Hg2 mi
1:00 AM32 °FIce fog.10 mph100%30.07 "Hg2 mi
12:30 AM32 °FIce fog.10 mph100%30.07 "Hg1 mi
12:00 AM32 °FIce fog.10 mph100%30.07 "Hg1 mi
11:30 PM
Dec 17
32 °FIce fog.10 mph100%30.09 "Hg1 mi
11:00 PM32 °FIce fog.8 mph100%30.09 "Hg1 mi
10:30 PM32 °FDense fog.8 mph100%30.09 "Hg1 mi
10:00 PM32 °FFog.8 mph100%30.09 "Hg0 mi
9:30 PM32 °FFog.8 mph100%30.12 "Hg0 mi
9:00 PM32 °FIce fog.8 mph100%30.12 "Hg0 mi
8:30 PM32 °FIce fog.8 mph100%30.12 "Hg0 mi
8:00 PM32 °FIce fog.8 mph100%30.12 "Hg0 mi
7:30 PM32 °FIce fog.10 mph100%30.15 "Hg0 mi
7:00 PM32 °FFog.10 mph100%30.12 "Hg0 mi
Weather by CustomWeather, © 2014

See weather overviewHow to use our weather pages